MST,Max TemperatureF,Mean TemperatureF,Min TemperatureF,Max Dew PointF,MeanDew PointF,Min DewpointF,Max Humidity, Mean Humidity, Min Humidity, Max Sea Level PressureIn, Mean Sea Level PressureIn, Min Sea Level PressureIn, Max VisibilityMiles, Mean VisibilityMiles, Min VisibilityMiles, Max Wind SpeedMPH, Mean Wind SpeedMPH, Max Gust SpeedMPH,PrecipitationIn, CloudCover, Events, WindDirDegrees
2012-11-1,72,54,37,24,16,6,44,25,8,30.04,29.96,29.91,10,10,9,13,6,20,0.00,0,,197
2012-11-2,69,54,39,26,23,21,51,32,17,29.99,29.94,29.87,10,10,10,9,6,,0.00,0,,209
2012-11-3,70,54,37,27,23,17,51,33,18,30.17,30.05,29.98,10,10,3,10,5,,0.00,0,,216
2012-11-4,75,56,37,23,20,14,55,30,10,30.20,30.14,30.09,10,10,10,8,5,,0.00,0,,233
2012-11-5,75,56,37,29,21,17,53,29,11,30.23,30.15,30.08,10,10,8,8,4,,0.00,0,,223
2012-11-6,82,62,42,39,24,17,51,31,11,30.19,30.10,30.04,10,9,8,10,5,,0.00,0,,192
2012-11-7,75,57,39,27,24,17,53,33,11,30.11,30.01,29.91,10,9,2,13,5,,0.00,0,,197
2012-11-8,68,54,41,45,31,19,93,49,16,29.93,29.87,29.79,10,9,3,17,8,43,0.03,3,Rain,184
2012-11-9,55,47,39,45,41,34,89,71,51,29.88,29.72,29.64,10,10,3,25,10,39,0.09,6,Rain,192
2012-11-10,42,34,26,33,21,11,85,61,34,30.03,29.86,29.69,10,8,1,26,13,32,0.00,4,Rain-Snow,244
2012-11-11,44,32,21,19,13,5,78,52,20,30.37,30.24,30.06,10,10,10,8,3,,0.00,0,,251
2012-11-12,57,38,19,12,7,-2,65,36,9,30.40,30.29,30.18,10,10,6,7,3,,0.00,0,,219
2012-11-13,64,44,24,14,9,3,57,31,9,30.30,30.20,30.11,10,10,9,8,3,,0.00,0,,200
2012-11-14,64,44,24,16,11,7,60,32,12,30.24,30.15,30.08,10,10,9,10,4,,0.00,0,,205
2012-11-15,57,44,32,25,16,12,48,33,16,30.19,30.13,30.07,10,9,6,7,3,,0.00,2,,214
2012-11-16,66,54,41,30,24,17,60,36,16,30.10,30.05,30.00,10,10,7,12,4,16,0.00,3,,198
2012-11-17,64,52,39,39,33,22,76,50,31,30.09,30.03,29.99,10,10,10,17,8,24,0.00,3,,191
2012-11-18,60,48,36,40,36,34,93,66,39,30.14,30.07,30.02,10,10,10,10,4,,0.00,1,,196
2012-11-19,63,48,32,37,32,29,89,63,29,30.26,30.20,30.13,10,10,10,9,6,,0.00,0,,181
2012-11-20,66,47,28,31,25,16,89,50,14,30.25,30.14,30.04,10,10,10,9,6,,0.00,0,,167
2012-11-21,68,50,33,28,24,17,67,43,15,30.13,30.05,29.97,10,10,10,9,5,,0.00,0,,196
2012-11-22,68,49,30,27,19,11,64,37,12,30.20,30.11,30.01,10,10,10,10,5,,0.00,0,,202
2012-11-23,71,52,34,22,18,11,56,32,10,30.31,30.23,30.16,10,10,10,10,5,,0.00,0,,199
2012-11-24,69,50,30,23,20,17,61,36,14,30.26,30.13,30.00,10,10,10,9,4,,0.00,0,,197
2012-11-25,68,51,34,27,22,16,64,40,14,30.03,29.95,29.86,10,10,10,12,4,,0.00,0,,208
2012-11-26,66,50,35,25,23,21,62,40,18,30.15,30.04,29.93,10,10,10,9,4,,0.00,0,,190
2012-11-27,66,48,30,26,23,19,67,40,20,30.26,30.18,30.11,10,10,9,8,5,,0.00,0,,194
2012-11-28,64,49,34,30,27,24,68,46,24,30.19,30.13,30.05,10,10,8,15,6,23,0.00,0,,202
2012-11-29,64,50,35,35,30,21,76,52,28,30.18,30.13,30.08,10,10,7,12,6,20,0.00,0,,205
2012-11-30,63,50,36,40,36,33,93,65,34,30.17,30.10,30.03,10,10,10,9,5,18,0.00,0,,186